Location: Keppel Henge
(44.7900°N, 80.9447°W)
Time: 04:41:38
(UTC-05:00)

Tiangong 2 - Pass Details

Date: 14 October 2017
Orbit: 386 x 390 km, 42.8° (Epoch: 10 December)

Event Time Altitude Azimuth Distance (km) Brightness Sun altitude
Exits shadow 05:00:19 14° 97° (E) 1,210 4.3 -28.5°
Drops below altitude 10° 05:00:53 10° 93° (E) 1,423 4.8 -28.4°
Sets 05:03:01 0° 87° (E) 2,281 6.1 -28.1°
